EWG94Y EDDP-EDDS

Flight info

Callsign EWG94Y
Flight time 0h 38m
Altitude 24000
Route NEVKO2E NEVKO Q243 BAMKI Z94 VAGAB DCT GEBNO GEBNO1W
Aircraft A319/M-SDE3FGHIRWY/LB1

Departure

Time 2026-05-07 07:55
Airport Leipzig/Halle Airport (EDDP)

Arrival

Time 2026-05-07 08:33
Airport Stuttgart Airport (EDDS)
Time Latitude Longitude Altitude Speed Heading
2026-05-07 07:34 51.41907 12.22034 441 ft 0 kts 16°
2026-05-07 07:47 51.41903 12.22032 443 ft 3 kts 15°
2026-05-07 07:47 51.41877 12.22023 440 ft 4 kts
2026-05-07 07:47 51.41850 12.22023 436 ft 4 kts 351°
2026-05-07 07:47 51.41825 12.22034 446 ft 4 kts 332°
2026-05-07 07:48 51.41804 12.22060 447 ft 4 kts 303°
2026-05-07 07:48 51.41797 12.22082 447 ft 0 kts 285°
2026-05-07 07:50 51.41798 12.22074 447 ft 3 kts 285°
2026-05-07 07:51 51.41811 12.22001 434 ft 10 kts 285°
2026-05-07 07:51 51.41837 12.21848 443 ft 18 kts 285°
2026-05-07 07:51 51.41875 12.21619 439 ft 25 kts 285°
2026-05-07 07:51 51.41896 12.21496 426 ft 0 kts 285°
2026-05-07 07:52 51.41903 12.21456 433 ft 7 kts 285°
2026-05-07 07:52 51.41922 12.21341 433 ft 14 kts 285°
2026-05-07 07:52 51.41955 12.21144 426 ft 22 kts 285°
2026-05-07 07:52 51.41975 12.20895 420 ft 23 kts 236°
2026-05-07 07:53 51.41815 12.20820 429 ft 25 kts 193°
2026-05-07 07:53 51.41639 12.20744 436 ft 27 kts 196°
2026-05-07 07:53 51.41453 12.20662 435 ft 29 kts 195°
2026-05-07 07:53 51.41264 12.20581 441 ft 24 kts 195°
2026-05-07 07:54 51.41168 12.20645 438 ft 19 kts 84°
2026-05-07 07:54 51.41186 12.20991 445 ft 57 kts 85°
2026-05-07 07:54 51.41232 12.21965 456 ft 116 kts 85°
2026-05-07 07:54 51.41301 12.23529 516 ft 159 kts 82°
2026-05-07 07:55 51.41354 12.25220 1194 ft 151 kts 84°
2026-05-07 07:55 51.41430 12.26949 1688 ft 161 kts 82°
2026-05-07 07:55 51.41547 12.28795 2079 ft 177 kts 82°
2026-05-07 07:55 51.41685 12.30878 2365 ft 200 kts 82°
2026-05-07 07:56 51.41836 12.33253 2528 ft 232 kts 84°
2026-05-07 07:56 51.41980 12.35951 3104 ft 250 kts 85°
2026-05-07 07:56 51.42119 12.38775 3953 ft 258 kts 84°
2026-05-07 07:56 51.42256 12.41674 4837 ft 265 kts 85°
2026-05-07 07:57 51.42393 12.44655 5760 ft 269 kts 85°
2026-05-07 07:57 51.42514 12.47630 6820 ft 267 kts 84°
2026-05-07 07:57 51.42333 12.50618 7573 ft 281 kts 110°
2026-05-07 07:57 51.41178 12.53165 8425 ft 289 kts 137°
2026-05-07 07:58 51.39426 12.54771 9364 ft 292 kts 163°
2026-05-07 07:58 51.37428 12.55278 10254 ft 295 kts 176°
2026-05-07 07:58 51.35332 12.55528 10526 ft 318 kts 178°
2026-05-07 07:58 51.33044 12.55781 10706 ft 341 kts 178°
2026-05-07 07:59 51.30613 12.56042 11001 ft 356 kts 177°
2026-05-07 07:59 51.28117 12.56312 11589 ft 362 kts 178°
2026-05-07 07:59 51.25592 12.56594 12252 ft 366 kts 177°
2026-05-07 07:59 51.23037 12.56884 12934 ft 369 kts 177°
2026-05-07 08:00 51.20464 12.57082 13615 ft 372 kts 184°
2026-05-07 08:00 51.17915 12.56387 14247 ft 373 kts 199°
2026-05-07 08:00 51.15570 12.54612 14914 ft 375 kts 214°
2026-05-07 08:00 51.13605 12.51880 15579 ft 378 kts 229°
2026-05-07 08:01 51.12155 12.48373 16192 ft 383 kts 244°
2026-05-07 08:01 51.11222 12.44387 16830 ft 386 kts 250°
2026-05-07 08:01 51.10345 12.40327 17522 ft 390 kts 250°
2026-05-07 08:01 51.09455 12.36223 18132 ft 395 kts 250°
2026-05-07 08:02 51.08551 12.32081 18626 ft 398 kts 250°
2026-05-07 08:02 51.07637 12.27907 19125 ft 401 kts 250°
2026-05-07 08:02 51.06714 12.23705 19617 ft 404 kts 249°
2026-05-07 08:02 51.05781 12.19473 20097 ft 407 kts 249°
2026-05-07 08:03 51.04836 12.15207 20565 ft 410 kts 249°
2026-05-07 08:03 51.03883 12.10917 21020 ft 413 kts 249°
2026-05-07 08:03 51.02922 12.06598 21495 ft 416 kts 249°
2026-05-07 08:03 51.01966 12.02308 21919 ft 419 kts 249°
2026-05-07 08:04 51.00988 11.97928 22348 ft 422 kts 249°
2026-05-07 08:04 51.00005 11.93524 22826 ft 425 kts 249°
2026-05-07 08:04 50.99012 11.89078 23262 ft 428 kts 249°
2026-05-07 08:04 50.98013 11.84613 23640 ft 431 kts 249°
2026-05-07 08:05 50.97001 11.80112 23875 ft 434 kts 248°
2026-05-07 08:05 50.95978 11.75579 23933 ft 442 kts 248°
2026-05-07 08:05 50.94930 11.70949 23933 ft 448 kts 248°
2026-05-07 08:05 50.93875 11.66302 23926 ft 449 kts 248°
2026-05-07 08:06 50.92816 11.61634 23928 ft 450 kts 248°
2026-05-07 08:06 50.91760 11.56971 23932 ft 450 kts 248°
2026-05-07 08:06 50.90702 11.52308 23930 ft 450 kts 248°
2026-05-07 08:06 50.89641 11.47645 23933 ft 450 kts 248°
2026-05-07 08:07 50.88578 11.42992 23932 ft 450 kts 248°
2026-05-07 08:07 50.87509 11.38337 23925 ft 450 kts 248°
2026-05-07 08:07 50.86406 11.33705 23939 ft 449 kts 245°
2026-05-07 08:07 50.84967 11.29329 23922 ft 448 kts 236°
2026-05-07 08:08 50.83154 11.25334 23909 ft 447 kts 230°
2026-05-07 08:08 50.81248 11.21435 23916 ft 449 kts 231°
2026-05-07 08:08 50.79346 11.17524 23923 ft 449 kts 231°
2026-05-07 08:08 50.77445 11.13611 23927 ft 449 kts 231°
2026-05-07 08:09 50.76162 11.10966 23929 ft 448 kts 231°
2026-05-07 08:09 50.74263 11.07060 23928 ft 448 kts 231°
2026-05-07 08:09 50.72298 11.03335 23927 ft 447 kts 225°
2026-05-07 08:09 50.69997 11.00064 23927 ft 445 kts 216°
2026-05-07 08:10 50.67473 10.97254 23923 ft 445 kts 213°
2026-05-07 08:10 50.64929 10.94477 23921 ft 444 kts 213°
2026-05-07 08:10 50.62388 10.91699 23923 ft 444 kts 213°
2026-05-07 08:10 50.59852 10.88922 23919 ft 444 kts 213°
2026-05-07 08:11 50.57309 10.86142 23916 ft 444 kts 213°
2026-05-07 08:11 50.54771 10.83378 23922 ft 444 kts 213°
2026-05-07 08:11 50.52096 10.80969 23926 ft 443 kts 204°
2026-05-07 08:11 50.49273 10.79045 23931 ft 443 kts 202°
2026-05-07 08:12 50.46436 10.77154 23926 ft 442 kts 202°
2026-05-07 08:12 50.43608 10.75271 23923 ft 442 kts 202°
2026-05-07 08:12 50.40781 10.73391 23919 ft 442 kts 202°
2026-05-07 08:12 50.37945 10.71513 23932 ft 442 kts 202°
2026-05-07 08:13 50.35106 10.69638 23921 ft 443 kts 202°
2026-05-07 08:13 50.32263 10.67763 23915 ft 443 kts 202°
2026-05-07 08:13 50.29420 10.65884 23919 ft 443 kts 202°
2026-05-07 08:13 50.26583 10.64005 23919 ft 444 kts 202°
2026-05-07 08:14 50.23734 10.62116 23920 ft 444 kts 202°
2026-05-07 08:14 50.20880 10.60233 23942 ft 449 kts 203°
2026-05-07 08:14 50.17976 10.58323 23944 ft 455 kts 203°
2026-05-07 08:14 50.15054 10.56408 23944 ft 456 kts 204°
2026-05-07 08:15 50.12120 10.54486 23953 ft 458 kts 204°
2026-05-07 08:15 50.09180 10.52561 23952 ft 458 kts 204°
2026-05-07 08:15 50.06241 10.50636 23949 ft 458 kts 204°
2026-05-07 08:15 50.03300 10.48716 23959 ft 458 kts 204°
2026-05-07 08:16 50.00352 10.46798 23949 ft 459 kts 204°
2026-05-07 08:16 49.97406 10.44880 23955 ft 458 kts 204°
2026-05-07 08:16 49.94511 10.42992 23956 ft 458 kts 204°
2026-05-07 08:16 49.91571 10.41077 23950 ft 458 kts 204°
2026-05-07 08:17 49.88590 10.39138 23949 ft 459 kts 204°
2026-05-07 08:17 49.85683 10.37246 23956 ft 459 kts 204°
2026-05-07 08:17 49.82697 10.35309 23954 ft 459 kts 204°
2026-05-07 08:17 49.79790 10.33431 23955 ft 459 kts 204°
2026-05-07 08:18 49.76837 10.31529 23956 ft 460 kts 204°
2026-05-07 08:18 49.73884 10.29632 23956 ft 460 kts 204°
2026-05-07 08:18 49.70932 10.27732 23953 ft 460 kts 204°
2026-05-07 08:18 49.67975 10.25831 23952 ft 460 kts 204°
2026-05-07 08:19 49.65014 10.23932 23952 ft 461 kts 204°
2026-05-07 08:19 49.62056 10.22034 23954 ft 461 kts 204°
2026-05-07 08:19 49.59091 10.20131 23955 ft 461 kts 204°
2026-05-07 08:19 49.56131 10.18234 23957 ft 461 kts 204°
2026-05-07 08:20 49.53214 10.16369 23914 ft 447 kts 204°
2026-05-07 08:20 49.50345 10.14539 22877 ft 449 kts 204°
2026-05-07 08:20 49.47432 10.12683 21439 ft 458 kts 204°
2026-05-07 08:20 49.44479 10.10804 20286 ft 459 kts 204°
2026-05-07 08:21 49.41542 10.08940 19348 ft 454 kts 204°
2026-05-07 08:21 49.38639 10.07102 18479 ft 448 kts 204°
2026-05-07 08:21 49.35780 10.05292 17555 ft 442 kts 204°
2026-05-07 08:21 49.32962 10.03505 16652 ft 435 kts 204°
2026-05-07 08:22 49.30185 10.01749 15765 ft 428 kts 204°
2026-05-07 08:22 49.27454 10.00028 14912 ft 421 kts 204°
2026-05-07 08:22 49.24762 9.98336 14096 ft 415 kts 204°
2026-05-07 08:22 49.22136 9.96683 13266 ft 410 kts 204°
2026-05-07 08:23 49.19515 9.95031 12445 ft 406 kts 204°
2026-05-07 08:23 49.16924 9.93356 11563 ft 402 kts 208°
2026-05-07 08:23 49.14542 9.91234 11106 ft 388 kts 214°
2026-05-07 08:23 49.12308 9.89144 10980 ft 366 kts 213°
2026-05-07 08:24 49.10188 9.87199 10839 ft 346 kts 213°
2026-05-07 08:24 49.08175 9.85360 10713 ft 329 kts 213°
2026-05-07 08:24 49.06284 9.83630 10584 ft 305 kts 213°
2026-05-07 08:24 49.04513 9.82004 10314 ft 290 kts 214°
2026-05-07 08:25 49.02805 9.80430 10069 ft 286 kts 214°
2026-05-07 08:25 49.01112 9.78868 9881 ft 284 kts 214°
2026-05-07 08:25 48.99417 9.77302 9751 ft 284 kts 214°
2026-05-07 08:25 48.97730 9.75747 9619 ft 283 kts 214°
2026-05-07 08:26 48.94364 9.72651 9344 ft 282 kts 214°
2026-05-07 08:26 48.92679 9.71105 9024 ft 285 kts 214°
2026-05-07 08:26 48.90991 9.69558 8691 ft 282 kts 213°
2026-05-07 08:27 48.89302 9.68014 8214 ft 284 kts 213°
2026-05-07 08:27 48.87633 9.66491 7938 ft 279 kts 213°
2026-05-07 08:27 48.85974 9.64976 7592 ft 277 kts 213°
2026-05-07 08:27 48.84324 9.63468 7290 ft 276 kts 213°
2026-05-07 08:28 48.82704 9.61988 7012 ft 275 kts 213°
2026-05-07 08:28 48.81047 9.60475 6604 ft 277 kts 214°
2026-05-07 08:28 48.79370 9.58942 5854 ft 293 kts 213°
2026-05-07 08:28 48.77621 9.57346 5512 ft 291 kts 213°
2026-05-07 08:29 48.75943 9.55720 5376 ft 281 kts 222°
2026-05-07 08:29 48.74838 9.53377 5124 ft 274 kts 251°
2026-05-07 08:29 48.74290 9.50624 4786 ft 273 kts 257°
2026-05-07 08:29 48.73801 9.47831 4408 ft 275 kts 256°
2026-05-07 08:30 48.73288 9.45046 4023 ft 270 kts 255°
2026-05-07 08:30 48.72783 9.42364 3671 ft 260 kts 256°
2026-05-07 08:30 48.72298 9.39783 3330 ft 249 kts 256°
2026-05-07 08:30 48.71840 9.37339 2991 ft 232 kts 256°
2026-05-07 08:31 48.71418 9.35095 2697 ft 210 kts 256°
2026-05-07 08:31 48.71038 9.33076 2426 ft 191 kts 256°
2026-05-07 08:31 48.70694 9.31248 2183 ft 172 kts 255°
2026-05-07 08:31 48.70386 9.29612 1946 ft 151 kts 255°
2026-05-07 08:32 48.70119 9.28155 1721 ft 138 kts 253°
2026-05-07 08:32 48.69866 9.26829 1539 ft 123 kts 253°
2026-05-07 08:32 48.69623 9.25583 1363 ft 124 kts 254°
2026-05-07 08:32 48.69389 9.24320 1232 ft 123 kts 254°
2026-05-07 08:33 48.69175 9.23180 1219 ft 94 kts 253°
2026-05-07 08:33 48.69034 9.22441 1237 ft 59 kts 254°
2026-05-07 08:33 48.68938 9.21938 1251 ft 41 kts 254°
2026-05-07 08:33 48.68873 9.21597 1265 ft 29 kts 254°
2026-05-07 08:34 48.68819 9.21297 1269 ft 29 kts 260°
2026-05-07 08:34 48.68837 9.20990 1271 ft 30 kts 281°
2026-05-07 08:34 48.68874 9.20735 1276 ft 19 kts 278°
2026-05-07 08:34 48.68847 9.20536 1281 ft 20 kts 253°
2026-05-07 08:35 48.68811 9.20338 1285 ft 20 kts 254°
2026-05-07 08:35 48.68769 9.20121 1287 ft 22 kts 254°
2026-05-07 08:35 48.68795 9.19946 1285 ft 19 kts 312°
2026-05-07 08:35 48.68885 9.19842 1285 ft 13 kts 283°
2026-05-07 08:36 48.68867 9.19706 1285 ft 13 kts 254°
2026-05-07 08:36 48.68854 9.19623 1285 ft 2 kts 282°
2026-05-07 08:36 48.68875 9.19603 1287 ft 5 kts 346°
2026-05-07 08:36 48.68914 9.19586 1288 ft 7 kts 344°
2026-05-07 08:37 48.68927 9.19580 1285 ft 0 kts 344°